Hourly Weather Bolshie Lomy

Today, 3 August, Tuesday

Time Temperature Precipitation Wind Pressure Humidity
00:00 +17°C° 0 mm 4 mps 734 mmHg 87%
01:00 +15°C° 0 mm 4 mps 734 mmHg 89%
02:00 +15°C° 0 mm 4 mps 735 mmHg 92%
03:00 +16°C° 0 mm 3 mps 735 mmHg 91%
04:00 +16°C° 0 mm 3 mps 736 mmHg 91%
05:00 +16°C° 0 mm 3 mps 736 mmHg 90%
06:00 +17°C° 0 mm 3 mps 736 mmHg 83%
07:00 +18°C° 0 mm 4 mps 737 mmHg 76%
08:00 +19°C° 0 mm 4 mps 737 mmHg 70%
09:00 +20°C° 0 mm 4 mps 737 mmHg 64%
10:00 +21°C° 0 mm 4 mps 738 mmHg 59%
11:00 +22°C° 0 mm 5 mps 738 mmHg 53%
12:00 +22°C° 0 mm 5 mps 738 mmHg 50%
13:00 +23°C° 0 mm 5 mps 738 mmHg 47%
14:00 +23°C° 0 mm 6 mps 738 mmHg 44%
15:00 +22°C° 0 mm 5 mps 738 mmHg 47%
16:00 +22°C° 0 mm 4 mps 738 mmHg 51%
17:00 +21°C° 0 mm 4 mps 738 mmHg 54%
18:00 +20°C° 0 mm 3 mps 739 mmHg 59%
19:00 +19°C° 0 mm 3 mps 739 mmHg 64%
20:00 +18°C° 0 mm 2 mps 739 mmHg 69%
21:00 +17°C° 0 mm 2 mps 739 mmHg 69%
22:00 +17°C° 0 mm 3 mps 740 mmHg 69%
23:00 +17°C° 0 mm 3 mps 740 mmHg 69%

Tomorrow, 4 August, Wednesday

Time Temperature Precipitation Wind Pressure Humidity
00:00 +16°C° 0 mm 2 mps 740 mmHg 75%
01:00 +15°C° 0 mm 2 mps 740 mmHg 81%
02:00 +14°C° 0 mm 2 mps 741 mmHg 87%
03:00 +13°C° 0 mm 2 mps 741 mmHg 88%
04:00 +13°C° 0 mm 1 mps 741 mmHg 88%
05:00 +13°C° 0 mm 1 mps 741 mmHg 89%
06:00 +15°C° 0 mm 1 mps 742 mmHg 81%
07:00 +18°C° 0 mm 1 mps 742 mmHg 72%
08:00 +20°C° 0 mm 1 mps 742 mmHg 64%
09:00 +21°C° 0.4 mm 1 mps 742 mmHg 64%
10:00 +20°C° 0.4 mm 2 mps 742 mmHg 63%
11:00 +21°C° 0.4 mm 2 mps 742 mmHg 63%
12:00 +21°C° 0.7 mm 2 mps 742 mmHg 63%
13:00 +21°C° 0.7 mm 2 mps 742 mmHg 63%
14:00 +23°C° 0.7 mm 2 mps 742 mmHg 63%
15:00 +21°C° 0.2 mm 2 mps 742 mmHg 64%
16:00 +21°C° 0.2 mm 2 mps 742 mmHg 65%
17:00 +21°C° 0.2 mm 2 mps 742 mmHg 66%
18:00 +21°C° 0.2 mm 1 mps 743 mmHg 70%
19:00 +19°C° 0.2 mm 1 mps 743 mmHg 75%
20:00 +18°C° 0.2 mm 1 mps 743 mmHg 79%
21:00 +18°C° 0.1 mm 1 mps 743 mmHg 80%
22:00 +16°C° 0.1 mm 1 mps 743 mmHg 82%
23:00 +16°C° 0.1 mm 1 mps 743 mmHg 83%

Day after tomorrow, 5 August, Thursday

Time Temperature Precipitation Wind Pressure Humidity
00:00 +16°C° 0 mm 1 mps 743 mmHg 85%
01:00 +15°C° 0 mm 1 mps 743 mmHg 86%
02:00 +15°C° 0 mm 1 mps 743 mmHg 87%
03:00 +15°C° 0 mm 1 mps 743 mmHg 88%
04:00 +15°C° 0 mm 1 mps 743 mmHg 89%
05:00 +15°C° 0 mm 2 mps 743 mmHg 90%
06:00 +15°C° 0.3 mm 1 mps 743 mmHg 90%
07:00 +16°C° 0.3 mm 1 mps 743 mmHg 91%
08:00 +16°C° 0.3 mm 1 mps 743 mmHg 91%
09:00 +16°C° 1.2 mm 1 mps 743 mmHg 93%
10:00 +15°C° 1.2 mm 1 mps 743 mmHg 94%
11:00 +15°C° 1.2 mm 2 mps 743 mmHg 95%
12:00 +15°C° 0.5 mm 2 mps 742 mmHg 95%
13:00 +14°C° 0.5 mm 3 mps 742 mmHg 94%
14:00 +14°C° 0.5 mm 4 mps 742 mmHg 94%
15:00 +16°C° 0.1 mm 3 mps 742 mmHg 91%
16:00 +17°C° 0.1 mm 3 mps 741 mmHg 89%
17:00 +18°C° 0.1 mm 3 mps 741 mmHg 86%
18:00 +17°C° 0 mm 2 mps 741 mmHg 89%
19:00 +16°C° 0 mm 2 mps 741 mmHg 91%
20:00 +16°C° 0 mm 2 mps 741 mmHg 94%
21:00 +16°C° 0.5 mm 2 mps 740 mmHg 95%
22:00 +16°C° 0.5 mm 2 mps 740 mmHg 97%
23:00 +16°C° 0.5 mm 2 mps 740 mmHg 98%

6 August, Friday

Time Temperature Precipitation Wind Pressure Humidity
00:00 +16°C° 0.9 mm 2 mps 740 mmHg 98%
01:00 +16°C° 0.9 mm 2 mps 740 mmHg 98%
02:00 +16°C° 0.9 mm 2 mps 740 mmHg 98%
03:00 +16°C° 0.1 mm 2 mps 740 mmHg 98%
04:00 +16°C° 0.1 mm 2 mps 739 mmHg 98%
05:00 +15°C° 0.1 mm 2 mps 739 mmHg 97%
06:00 +16°C° 0.2 mm 2 mps 739 mmHg 97%
07:00 +16°C° 0.2 mm 3 mps 739 mmHg 96%
08:00 +16°C° 0.2 mm 3 mps 739 mmHg 96%
09:00 +16°C° 1.4 mm 3 mps 739 mmHg 96%
10:00 +16°C° 1.4 mm 3 mps 739 mmHg 96%
11:00 +16°C° 1.4 mm 3 mps 739 mmHg 96%
12:00 +16°C° 0.6 mm 3 mps 739 mmHg 96%
13:00 +17°C° 0.6 mm 4 mps 739 mmHg 96%
14:00 +17°C° 0.6 mm 4 mps 738 mmHg 97%
15:00 +17°C° 0.3 mm 4 mps 738 mmHg 96%
16:00 +17°C° 0.3 mm 4 mps 738 mmHg 95%
17:00 +18°C° 0.3 mm 4 mps 738 mmHg 94%
18:00 +17°C° 2.4 mm 4 mps 738 mmHg 95%
19:00 +17°C° 2.4 mm 4 mps 738 mmHg 97%
20:00 +15°C° 2.4 mm 5 mps 738 mmHg 98%
21:00 +16°C° 2.5 mm 5 mps 738 mmHg 97%
22:00 +16°C° 2.5 mm 5 mps 738 mmHg 96%
23:00 +16°C° 2.5 mm 6 mps 738 mmHg 95%

7 August, Saturday

Time Temperature Precipitation Wind Pressure Humidity
00:00 +15°C° 0.1 mm 5 mps 738 mmHg 95%
01:00 +15°C° 0.1 mm 4 mps 737 mmHg 95%
02:00 +15°C° 0.1 mm 4 mps 737 mmHg 96%
03:00 +16°C° 0 mm 3 mps 737 mmHg 96%
04:00 +16°C° 0 mm 2 mps 737 mmHg 97%
05:00 +15°C° 0 mm 2 mps 738 mmHg 98%
06:00 +17°C° 0 mm 2 mps 738 mmHg 94%
07:00 +18°C° 0 mm 2 mps 738 mmHg 89%
08:00 +20°C° 0 mm 2 mps 738 mmHg 85%
09:00 +22°C° 0.1 mm 1 mps 738 mmHg 83%
10:00 +23°C° 0.1 mm 1 mps 738 mmHg 81%
11:00 +24°C° 0.1 mm 1 mps 738 mmHg 79%
12:00 +24°C° 0 mm 2 mps 738 mmHg 76%
13:00 +25°C° 0 mm 2 mps 738 mmHg 73%
14:00 +26°C° 0 mm 2 mps 738 mmHg 70%
15:00 +26°C° 0.3 mm 2 mps 738 mmHg 72%
16:00 +25°C° 0.3 mm 2 mps 738 mmHg 74%
17:00 +25°C° 0.3 mm 2 mps 738 mmHg 76%
18:00 +24°C° 0 mm 2 mps 738 mmHg 79%
19:00 +23°C° 0 mm 2 mps 738 mmHg 82%
20:00 +20°C° 0 mm 2 mps 738 mmHg 85%
21:00 +20°C° 0 mm 2 mps 738 mmHg 85%
22:00 +20°C° 0 mm 2 mps 738 mmHg 86%
23:00 +19°C° 0 mm 2 mps 738 mmHg 86%

8 August, Sunday

Time Temperature Precipitation Wind Pressure Humidity
00:00 +19°C° 0 mm 2 mps 739 mmHg 88%
01:00 +18°C° 0 mm 2 mps 739 mmHg 89%
02:00 +19°C° 0 mm 1 mps 739 mmHg 91%
03:00 +19°C° 0 mm 1 mps 739 mmHg 91%
04:00 +19°C° 0 mm 1 mps 739 mmHg 91%
05:00 +19°C° 0 mm 1 mps 739 mmHg 91%
06:00 +20°C° 0 mm 1 mps 739 mmHg 87%
07:00 +22°C° 0 mm 1 mps 739 mmHg 82%
08:00 +23°C° 0 mm 1 mps 739 mmHg 78%
09:00 +24°C° 0 mm 1 mps 740 mmHg 78%
10:00 +24°C° 0 mm 1 mps 740 mmHg 78%
11:00 +24°C° 0 mm 2 mps 741 mmHg 78%
12:00 +24°C° 0.5 mm 2 mps 741 mmHg 79%
13:00 +24°C° 0.5 mm 2 mps 741 mmHg 79%
14:00 +24°C° 0.5 mm 1 mps 741 mmHg 80%
15:00 +23°C° 0.9 mm 2 mps 741 mmHg 84%
16:00 +21°C° 0.9 mm 2 mps 742 mmHg 89%
17:00 +20°C° 0.9 mm 2 mps 742 mmHg 93%
18:00 +19°C° 0.4 mm 2 mps 742 mmHg 93%
19:00 +20°C° 0.4 mm 1 mps 743 mmHg 93%
20:00 +19°C° 0.4 mm 1 mps 743 mmHg 93%
21:00 +19°C° 0 mm 1 mps 743 mmHg 93%
22:00 +19°C° 0 mm 1 mps 743 mmHg 93%
23:00 +18°C° 0 mm 2 mps 743 mmHg 93%
Show more

We Need Your Consent

Meteoprog and our Service Providers may store and access personal data such as cookies, device identifiers or other similar technologies on your device and process such data to personalise content and ads, as well as provide social media features and to analyse the traffic.

  • Store and/or access information on your device

    Cookies, device identifiers or other information can be stored or accessed on your device for the purposes indicated above.

  • Personalised ads and content, ad and content measurement, audience insights, and products development

    Ads and content can be personalised based on a profile. More data can be added to better personalise ads and content. Ad and content performance can be measured. Insights about the audience who saw the ads and content can be derived. Such data can be used to develop or improve user’s experience, systems and software.

By clicking ‘I Agree’ you will allow the use of indicated cookies, device identifiers, web beacons or other similar technologies. Your settings can be changed in the browser on your device.

For certain purposes, legitimate interests may be relied on, rather than consent. You can read more about this in our Privacy and Cookie Policy.